Location: ???
(35.5616°N, 139.7977°E)
Time: 20:37:01
(UTC+00:00)

Cosmos 332 Rocket - Pass Details

Date: 17 November 2025
Orbit: 673 x 692 km, 74.0° (Epoch: 08 December)

Event Time Altitude Azimuth Distance (km) Brightness Sun altitude
Rises 20:39:34 0° 337° (NNW) 3,045 6.7 -8.4°
Reaches altitude 10° 20:41:55 10° 334° (NNW) 2,123 5.9 -7.9°
Maximum altitude 20:46:35 56° 256° (WSW) 803 3.9 -7.0°
Drops below altitude 10° 20:51:12 10° 179° (S) 2,099 6.6 -6.1°
Sets 20:53:30 0° 175° (S) 3,007 7.4 -5.7°
